Home > Weather > Asuncion > Past weeks

Flag for Paraguay Past Weather in Asuncion, Paraguay — Yesterday and Last 2 Weeks

Now
66 °F

Sunny.


Feels Like: 66 °F
Forecast: 57 / 93 °F
Wind: No wind

Location: Asuncion / Aeropuerto

Current Time: Aug 25, 2016 at 7:50:32 AM

Latest Report: Aug 25, 2016 at 7:30 AM


Visibility: 10 mi

Pressure: 29.98 "Hg

Humidity: 78%

Dew Point: 59 °F

Location of AsuncionLocation

Past Weather in Asuncion — Graph

°F

Asuncion Temperature Yesterday

Maximum temperature yesterday: 82 °F (at 2:00 PM)
Minimum temperature yesterday: 46 °F (at 5:00 AM)
Average temperature yesterday: 65 °F

High & Low Weather Summary for the Past Weeks

 TemperatureHumidityPressure
High91 °F (Aug 16, 3:00 PM)100% (Aug 15, 1:00 AM)30.42 "Hg (Aug 15, 1:00 AM)
Low41 °F (Aug 22, 4:00 AM)26% (Aug 11, 3:00 PM)29.65 "Hg (Aug 16, 3:00 PM)
Average67 °F64%29.97 "Hg
* Reported Aug 10 6:00 AM — Aug 25 6:00 AM, Asuncion, Weather by CustomWeather, © 2016

Note: Actual official high and low records may vary slightly from our data, if they occured in-between our weather recording intervals... More about our weather records

Advertising

Asuncion Weather History for the Previous 24 Hours

Scroll right to see more
 ConditionsComfort  
Time TempWeatherWind HumidityBarometerVisibility
6:00 AM
Thu, Aug 25
55 °FSunny.No wind88%29.95 "Hg10 mi
5:00 AM55 °FClear.No wind88%29.92 "Hg10 mi
4:00 AM57 °FClear.3 mph88%29.92 "Hg6 mi
3:00 AM55 °FClear.No wind88%29.92 "Hg6 mi
2:00 AM57 °FClear.3 mph88%29.92 "Hg6 mi
1:00 AM57 °FClear.3 mph82%29.95 "Hg6 mi
12:00 AM55 °FClear.No wind88%29.95 "Hg5 mi
11:00 PM
Wed, Aug 24
57 °FClear.2 mph82%29.95 "Hg5 mi
10:00 PM57 °FClear.2 mph82%29.95 "Hg5 mi
9:00 PM59 °FClear.No wind82%29.95 "Hg5 mi
8:00 PM59 °FClear.3 mph82%29.95 "Hg4 mi
7:00 PM64 °FClear.No wind64%29.92 "Hg4 mi
6:00 PM70 °FClear.3 mph53%29.92 "Hg10 mi
5:00 PM77 °FPassing clouds.7 mph39%29.92 "HgN/A
4:00 PM81 °FPassing clouds.9 mph34%29.89 "HgN/A
3:00 PM82 °FPassing clouds.12 mph35%29.92 "HgN/A
2:00 PM82 °FPassing clouds.12 mph35%29.92 "HgN/A
1:00 PM79 °FPassing clouds.10 mph37%29.95 "HgN/A
12:00 PM79 °FSunny.14 mph37%30.01 "Hg10 mi
11:00 AM77 °FPassing clouds.13 mph39%30.01 "HgN/A
10:00 AM75 °FPassing clouds.10 mph41%30.04 "HgN/A
9:30 AM75 °FSunny.7 mph39%30.04 "Hg10 mi
9:00 AM72 °FSunny.8 mph47%30.07 "Hg10 mi
8:30 AM68 °FSunny.7 mph53%30.07 "Hg10 mi
8:00 AM64 °FSunny.3 mph60%30.07 "Hg10 mi
7:00 AM50 °FSunny.No wind94%30.04 "Hg10 mi
Weather by CustomWeather, © 2016

See weather overviewHow to use our weather pages